Voltar ao catálogo

CZ-4 DEB

AtivoSSO
NORAD 20892·DEBRIS·🇨🇳 China

Lançado Sep 3, 1990 de Taiyuan Satellite Launch Center

Loading…

Próximas Passagens (próximas 24 horas)

TLE

AtualizadoSource: Space-Track

Época: Sep 13, 2026, 11:26 UTC

1 20892U 90081BC  26256.47655715  .00000551  00000-0  48587-3 0  9996
2 20892  98.8995  87.9455 0160162  94.1822 296.9879 13.83434131802855

Acompanhe CZ-4 DEB em tempo real com AllMySat

Download on the App Store